CW2220 Weather Reports


Display with metric or nautical units.
time (UTC)temp
F
wind
direction
speed
MPH
gust
MPH
rain 1hr
in
rain 24hr
in
rain mn
in
humidity
%
barometer
mb
20260509123034 75 0 0.0 2.0 0.00 0.60 0.00 98 1010.2
20260509121533 75 209 1.0 2.0 0.00 0.60 0.00 98 1010.2
20260509120030 75 0 0.0 0.0 0.00 0.60 0.00 98 1010.3
20260509114537 74 0 0.0 0.0 0.00 0.60 0.00 98 1010.3
20260509113035 74 0 0.0 2.0 0.00 0.60 0.00 98 1010.2
20260509111535 74 0 0.0 2.0 0.00 0.60 0.00 98 1009.9
20260509110040 74 0 0.0 1.0 0.00 0.60 0.00 98 1009.7
20260509104537 74 5 0.0 1.0 0.00 0.60 0.00 98 1009.5
20260509103043 74 134 0.0 4.0 0.00 0.60 0.00 98 1009.3
20260509101535 74 0 0.0 4.0 0.00 0.60 0.00 97 1009.1
20260509100035 74 0 0.0 3.0 0.00 0.60 0.00 97 1009.1
20260509094550 74 200 2.0 5.0 0.00 0.60 0.00 97 1008.9
20260509093030 74 198 1.0 6.0 0.00 0.60 0.00 97 1009.0
20260509091545 74 182 2.0 7.0 0.00 0.60 0.00 97 1009.1
20260509090041 74 146 0.0 6.0 0.00 0.60 0.00 97 1009.0
20260509084535 74 201 2.0 6.0 0.00 0.60 0.00 97 1008.7
20260509083037 73 179 2.0 8.0 0.00 0.60 0.00 97 1008.7
20260509081536 73 195 2.0 9.0 0.00 0.60 0.00 97 1008.6
20260509080044 73 148 1.0 4.0 0.00 0.60 0.00 97 1009.1
20260509074547 73 149 1.0 6.0 0.00 0.60 0.00 97 1009.1
20260509073045 73 143 1.0 7.0 0.00 0.60 0.00 97 1009.4
20260509071540 73 127 1.0 7.0 0.00 0.60 0.00 97 1009.6
20260509070041 72 171 3.0 7.0 0.00 0.60 0.00 97 1010.0
20260509064538 72 186 1.0 4.0 0.00 0.60 0.00 97 1010.4
20260509063051 72 144 1.0 4.0 0.00 0.60 0.00 97 1010.7
20260509061536 71 209 2.0 6.0 0.00 0.60 0.00 97 1010.3
20260509060039 71 0 2.0 6.0 0.00 0.60 0.00 97 1010.6
20260509054537 70 159 0.0 4.0 0.00 0.60 0.00 96 1010.8
20260509053050 70 0 0.0 0.0 0.00 0.60 0.00 96 1011.1
20260509051535 70 63 0.0 1.0 0.00 0.60 0.00 96 1011.4
20260509050043 70 0 0.0 4.0 0.00 0.60 0.00 96 1011.2
20260509044537 70 54 0.0 1.0 0.00 0.60 0.60 96 1011.3
20260509043044 71 54 1.0 3.0 0.00 0.60 0.60 96 1011.7
20260509041537 71 0 0.0 2.0 0.00 0.60 0.60 96 1011.8
20260509040050 71 5 1.0 3.0 0.00 0.60 0.60 95 1011.4
20260509034536 70 229 0.0 5.0 0.00 0.60 0.60 95 1010.9
20260509033037 71 109 0.0 3.0 0.00 0.60 0.60 95 1011.3
20260509031538 71 94 2.0 5.0 0.00 0.60 0.60 94 1011.8
20260509030036 71 30 3.0 6.0 0.00 0.60 0.60 94 1011.7
20260509024536 71 57 1.0 6.0 0.00 0.60 0.60 94 1011.1
20260509023033 71 147 4.0 11.0 0.00 0.60 0.60 94 1010.7
20260509021539 71 193 1.0 5.0 0.00 0.60 0.60 94 1010.4
20260509020038 71 144 1.0 6.0 0.00 0.60 0.60 94 1010.1
20260509014536 71 147 1.0 8.0 0.00 0.60 0.60 94 1010.3
20260509013035 71 115 1.0 5.0 0.00 0.60 0.60 94 1010.4
20260509011545 71 0 0.0 2.0 0.00 0.60 0.60 94 1010.6
20260509010040 72 195 1.0 4.0 0.00 0.60 0.60 94 1010.4
20260509004536 72 67 1.0 5.0 0.00 0.60 0.60 94 1010.2
20260509003036 72 63 1.0 5.0 0.00 0.60 0.60 94 1010.8
20260509001537 72 174 2.0 4.0 0.00 0.60 0.60 94 1010.5
20260509000034 72 0 1.0 7.0 0.00 0.60 0.60 94 1010.4
20260508234535 72 113 1.0 5.0 0.00 0.60 0.60 93 1010.5
20260508233038 72 19 2.0 6.0 0.00 0.60 0.60 93 1010.1
20260508231536 72 58 3.0 5.0 0.00 0.60 0.60 93 1010.3
20260508230036 72 0 1.0 8.0 0.00 0.60 0.60 94 1010.4
20260508224543 72 10 2.0 6.0 0.00 0.60 0.60 96 1010.3
20260508223040 72 116 1.0 12.0 0.00 0.60 0.60 96 1010.1
20260508221535 71 69 3.0 12.0 0.00 0.60 0.60 98 1010.0
20260508220046 71 107 3.0 12.0 0.00 0.60 0.60 99 1010.0
20260508214542 70 0 1.0 9.0 0.00 0.60 0.60 99 1010.9
20260508213040 69 73 2.0 6.0 0.00 0.60 0.60 99 1011.2
20260508211532 69 165 2.0 9.0 0.00 0.60 0.60 99 1011.2
20260508210035 68 49 4.0 12.0 0.00 0.60 0.60 99 1011.4
20260508204537 68 52 2.0 9.0 0.00 0.60 0.60 98 1011.4
20260508203037 68 144 4.0 8.0 0.00 0.60 0.60 98 1011.7
20260508201532 68 116 2.0 10.0 0.02 0.60 0.60 98 1011.9
20260508200032 68 147 3.0 7.0 0.03 0.60 0.60 98 1011.8
20260508194530 68 44 3.0 8.0 0.06 0.60 0.60 98 1011.8
20260508193030 69 74 2.0 9.0 0.46 0.60 0.60 99 1011.6
20260508191543 67 33 4.0 9.0 0.52 0.58 0.58 98 1011.6
20260508190033 67 28 4.0 10.0 0.52 0.57 0.57 98 1011.8
20260508184539 67 15 4.0 9.0 0.48 0.52 0.52 97 1012.1
20260508183029 67 49 4.0 11.0 0.08 0.13 0.13 97 1012.2
20260508181542 67 5 6.0 13.0 0.00 0.05 0.05 97 1012.8
20260508180036 67 30 5.0 20.0 0.00 0.05 0.05 96 1012.9
20260508174541 68 329 5.0 11.0 0.00 0.05 0.05 96 1013.5
20260508173037 69 17 5.0 10.0 0.00 0.05 0.05 97 1012.9
20260508171542 69 18 4.0 8.0 0.00 0.05 0.05 97 1013.0
20260508170035 69 30 3.0 6.0 0.01 0.05 0.05 97 1012.8
20260508164535 69 44 2.0 5.0 0.01 0.05 0.05 97 1012.4
20260508163036 68 346 2.0 5.0 0.04 0.05 0.05 96 1012.3
20260508161550 68 22 2.0 4.0 0.05 0.05 0.05 96 1012.2
20260508160036 68 0 0.0 3.0 0.04 0.04 0.04 96 1012.5
20260508154535 68 98 1.0 4.0 0.04 0.04 0.04 95 1012.7
20260508153055 68 49 3.0 7.0 0.00 0.00 0.00 95 1012.8
20260508151536 68 53 3.0 8.0 0.00 0.00 0.00 95 1013.4
20260508150038 68 30 2.0 6.0 0.00 0.00 0.00 95 1013.4
20260508144535 68 96 3.0 9.0 0.00 0.00 0.00 94 1013.4
20260508143056 68 76 4.0 9.0 0.00 0.00 0.00 94 1013.4
20260508141532 68 64 2.0 10.0 0.00 0.00 0.00 94 1013.1
20260508140039 68 30 4.0 7.0 0.00 0.00 0.00 93 1012.9
20260508134539 68 89 2.0 8.0 0.00 0.00 0.00 93 1012.8
20260508133035 68 22 2.0 9.0 0.00 0.00 0.00 93 1012.8
20260508131535 67 305 4.0 11.0 0.00 0.00 0.00 93 1012.4
20260508130033 67 83 3.0 10.0 0.00 0.00 0.00 93 1012.3
20260508124536 67 33 5.0 10.0 0.00 0.00 0.00 93 1012.2